Time,TemperatureF,DewpointF,PressureIn,WindDirection,WindDirectionDegrees,WindSpeedMPH,WindSpeedGustMPH,Humidity,HourlyPrecipIn,Conditions,Clouds,dailyrainin,SolarRadiationWatts/m^2,SoftwareType,DateUTC
2013-08-16 00:03:00,49.0,48.0,-100.00,NNW,337,1.0,3.0,95,0.00,,,0.00,0.000000,,2013-08-16 04:03:00,
2013-08-16 00:43:00,47.0,46.0,-100.00,NE,46,0.0,4.0,96,0.00,,,0.00,0.000000,,2013-08-16 04:43:00,
2013-08-16 00:54:00,47.0,46.0,-100.00,NE,46,0.0,4.0,96,0.00,,,0.00,0.000000,,2013-08-16 04:54:00,
2013-08-16 01:02:00,47.0,46.0,-100.00,NE,46,0.0,4.0,96,0.00,,,0.00,0.000000,,2013-08-16 05:02:00,
2013-08-16 03:00:00,45.0,44.0,-100.00,NW,305,1.0,3.0,97,0.00,,,0.00,0.000000,,2013-08-16 07:00:00,
2013-08-16 04:42:00,47.0,45.0,-100.00,NNW,347,1.0,5.0,91,-99.99,,,0.00,0.000000,,2013-08-16 08:42:00,
2013-08-16 04:52:00,47.0,45.0,-100.00,NNW,347,1.0,5.0,91,-99.99,,,0.00,0.000000,,2013-08-16 08:52:00,
2013-08-16 05:01:00,47.0,45.0,-100.00,NNW,347,1.0,5.0,91,-99.99,,,0.00,0.000000,,2013-08-16 09:01:00,
2013-08-16 05:42:00,46.0,45.0,-100.00,WSW,256,3.0,4.0,96,0.00,,,0.00,0.000000,,2013-08-16 09:42:00,
2013-08-16 05:53:00,46.0,45.0,-100.00,WSW,256,3.0,4.0,96,0.00,,,0.00,0.000000,,2013-08-16 09:53:00,
2013-08-16 06:03:00,46.0,45.0,-100.00,WSW,256,3.0,4.0,96,0.00,,,0.00,0.000000,,2013-08-16 10:03:00,
2013-08-16 06:42:00,45.0,44.0,-100.00,West,275,1.0,4.0,96,0.00,,,0.00,0.000000,,2013-08-16 10:42:00,
2013-08-16 06:53:00,45.0,44.0,-100.00,West,275,1.0,4.0,96,0.00,,,0.00,0.000000,,2013-08-16 10:53:00,
2013-08-16 07:02:00,45.0,44.0,-100.00,West,275,1.0,4.0,96,0.00,,,0.00,0.000000,,2013-08-16 11:02:00,
2013-08-16 07:22:00,44.0,43.0,-100.00,NE,36,0.0,4.0,97,0.00,,,0.00,5.000000,,2013-08-16 11:22:00,
2013-08-16 07:32:00,44.0,43.0,-100.00,NE,36,0.0,4.0,97,0.00,,,0.00,5.000000,,2013-08-16 11:32:00,
2013-08-16 07:42:00,44.0,43.0,-100.00,NE,36,0.0,4.0,97,0.00,,,0.00,5.000000,,2013-08-16 11:42:00,
2013-08-16 07:52:00,44.0,43.0,-100.00,NE,36,0.0,4.0,97,0.00,,,0.00,5.000000,,2013-08-16 11:52:00,
2013-08-16 08:02:00,44.0,43.0,-100.00,NE,36,0.0,4.0,97,0.00,,,0.00,5.000000,,2013-08-16 12:02:00,
2013-08-16 08:22:00,49.0,48.0,-100.00,SE,139,0.0,0.0,96,0.00,,,0.00,80.000000,,2013-08-16 12:22:00,
2013-08-16 08:32:00,49.0,48.0,-100.00,SE,139,0.0,0.0,96,0.00,,,0.00,80.000000,,2013-08-16 12:32:00,
2013-08-16 08:42:00,49.0,48.0,-100.00,SE,139,0.0,0.0,96,0.00,,,0.00,80.000000,,2013-08-16 12:42:00,
2013-08-16 08:52:00,49.0,48.0,-100.00,SE,139,0.0,0.0,96,0.00,,,0.00,80.000000,,2013-08-16 12:52:00,
2013-08-16 09:02:00,49.0,48.0,-100.00,SE,139,0.0,0.0,96,0.00,,,0.00,80.000000,,2013-08-16 13:02:00,
2013-08-16 09:42:00,63.0,56.0,-100.00,SE,135,0.0,2.0,77,0.00,,,0.00,278.000000,,2013-08-16 13:42:00,
2013-08-16 09:53:00,63.0,56.0,-100.00,SE,135,0.0,2.0,77,0.00,,,0.00,278.000000,,2013-08-16 13:53:00,
2013-08-16 10:02:00,63.0,56.0,-100.00,SE,135,0.0,2.0,77,0.00,,,0.00,278.000000,,2013-08-16 14:02:00,
2013-08-16 10:42:00,70.0,53.0,-100.00,West,276,3.0,6.0,55,0.00,,,-99.99,464.000000,,2013-08-16 14:42:00,
2013-08-16 10:52:00,70.0,53.0,-100.00,West,276,3.0,6.0,55,0.00,,,-99.99,464.000000,,2013-08-16 14:52:00,
2013-08-16 11:01:00,70.0,53.0,-100.00,West,276,3.0,6.0,55,0.00,,,-99.99,464.000000,,2013-08-16 15:01:00,
2013-08-16 11:04:00,73.0,50.0,-100.00,SW,220,3.0,7.0,44,0.00,,,0.00,659.000000,,2013-08-16 15:04:00,
2013-08-16 11:43:00,73.0,50.0,-100.00,SW,220,3.0,7.0,44,0.00,,,0.00,659.000000,,2013-08-16 15:43:00,
2013-08-16 11:56:00,73.0,50.0,-100.00,SW,220,3.0,7.0,44,0.00,,,0.00,659.000000,,2013-08-16 15:56:00,
2013-08-16 12:44:00,75.0,50.0,-100.00,SW,234,5.0,8.0,42,0.00,,,0.00,807.000000,,2013-08-16 16:44:00,
2013-08-16 12:57:00,75.0,50.0,-100.00,SW,234,5.0,8.0,42,0.00,,,0.00,807.000000,,2013-08-16 16:57:00,
2013-08-16 13:03:00,75.0,50.0,-100.00,SW,234,5.0,8.0,42,0.00,,,0.00,807.000000,,2013-08-16 17:03:00,
2013-08-16 13:04:00,77.0,49.0,-100.00,NNW,346,4.0,10.0,38,0.00,,,0.00,904.000000,,2013-08-16 17:04:00,
2013-08-16 13:47:00,77.0,49.0,-100.00,NNW,346,4.0,10.0,38,0.00,,,0.00,904.000000,,2013-08-16 17:47:00,
2013-08-16 14:00:00,77.0,49.0,-100.00,NNW,346,4.0,10.0,38,0.00,,,0.00,904.000000,,2013-08-16 18:00:00,
2013-08-16 14:50:00,-999.0,-99.9,-100.00,SW,224,4.0,9.0,38,0.00,,,0.00,893.000000,,2013-08-16 18:50:00,
2013-08-16 15:03:00,79.0,51.0,-100.00,SW,224,4.0,9.0,38,0.00,,,0.00,893.000000,,2013-08-16 19:03:00,
2013-08-16 15:25:00,80.0,50.0,-100.00,NNE,17,6.0,10.0,35,0.00,,,0.00,889.000000,,2013-08-16 19:25:00,
2013-08-16 15:36:00,80.0,50.0,-100.00,NNE,17,6.0,10.0,35,0.00,,,0.00,889.000000,,2013-08-16 19:36:00,
2013-08-16 15:46:00,80.0,50.0,-100.00,NNE,17,6.0,10.0,35,0.00,,,0.00,889.000000,,2013-08-16 19:46:00,
2013-08-16 15:55:00,80.0,50.0,-100.00,NNE,17,6.0,10.0,35,0.00,,,0.00,889.000000,,2013-08-16 19:55:00,
2013-08-16 16:02:00,80.0,50.0,-100.00,NNE,17,6.0,10.0,35,0.00,,,0.00,889.000000,,2013-08-16 20:02:00,
2013-08-16 16:44:00,82.0,55.0,-100.00,WSW,244,3.0,10.0,39,0.00,,,0.00,889.000000,,2013-08-16 20:44:00,
2013-08-16 16:52:00,82.0,55.0,-100.00,WSW,244,3.0,10.0,39,0.00,,,0.00,889.000000,,2013-08-16 20:52:00,
2013-08-16 17:01:00,82.0,55.0,-100.00,WSW,244,3.0,10.0,39,0.00,,,0.00,889.000000,,2013-08-16 21:01:00,
2013-08-16 17:04:00,77.0,49.0,-100.00,SW,226,3.0,11.0,38,0.00,,,0.00,665.000000,,2013-08-16 21:04:00,
2013-08-16 17:40:00,-999.0,-99.9,-100.00,SW,226,3.0,11.0,-999,0.00,,,0.00,665.000000,,2013-08-16 21:40:00,
2013-08-16 17:54:00,77.0,49.0,-100.00,SW,226,3.0,11.0,38,0.00,,,0.00,665.000000,,2013-08-16 21:54:00,
2013-08-16 18:04:00,76.0,49.0,-100.00,WSW,254,8.0,11.0,39,0.00,,,0.00,256.000000,,2013-08-16 22:04:00,
2013-08-16 18:43:00,76.0,49.0,-100.00,WSW,254,8.0,11.0,39,0.00,,,0.00,256.000000,,2013-08-16 22:43:00,
2013-08-16 18:52:00,76.0,49.0,-100.00,WSW,254,8.0,11.0,39,0.00,,,0.00,256.000000,,2013-08-16 22:52:00,
2013-08-16 19:23:00,75.0,50.0,-100.00,SW,231,9.0,16.0,41,0.00,,,0.00,187.000000,,2013-08-16 23:23:00,
2013-08-16 19:32:00,75.0,50.0,-100.00,SW,231,9.0,16.0,41,0.00,,,0.00,187.000000,,2013-08-16 23:32:00,
2013-08-16 19:42:00,75.0,50.0,-100.00,SW,231,9.0,16.0,41,0.00,,,0.00,187.000000,,2013-08-16 23:42:00,
2013-08-16 19:52:00,75.0,50.0,-100.00,SW,231,9.0,16.0,41,0.00,,,0.00,187.000000,,2013-08-16 23:52:00,
2013-08-16 20:02:00,75.0,50.0,-100.00,SW,231,9.0,16.0,41,0.00,,,0.00,187.000000,,2013-08-17 00:02:00,
2013-08-16 20:22:00,72.0,51.0,-100.00,SW,236,5.0,12.0,47,0.00,,,0.00,148.000000,,2013-08-17 00:22:00,
2013-08-16 20:33:00,72.0,51.0,-100.00,SW,236,5.0,12.0,47,0.00,,,0.00,148.000000,,2013-08-17 00:33:00,
2013-08-16 20:42:00,72.0,51.0,-100.00,SW,236,5.0,12.0,47,0.00,,,0.00,148.000000,,2013-08-17 00:42:00,
2013-08-16 20:52:00,72.0,51.0,-100.00,SW,236,5.0,12.0,47,0.00,,,0.00,148.000000,,2013-08-17 00:52:00,
2013-08-16 21:01:00,72.0,51.0,-100.00,SW,236,5.0,12.0,47,0.00,,,0.00,148.000000,,2013-08-17 01:01:00,
2013-08-16 21:42:00,65.0,51.0,-100.00,West,278,1.0,6.0,61,0.00,,,0.00,15.000000,,2013-08-17 01:42:00,
2013-08-16 21:52:00,65.0,51.0,-100.00,West,278,1.0,6.0,61,0.00,,,0.00,15.000000,,2013-08-17 01:52:00,
2013-08-16 22:01:00,65.0,51.0,-100.00,West,278,1.0,6.0,61,0.00,,,0.00,15.000000,,2013-08-17 02:01:00,
2013-08-16 22:42:00,58.0,53.0,-100.00,South,172,0.0,0.0,84,0.00,,,0.00,0.000000,,2013-08-17 02:42:00,
2013-08-16 22:52:00,58.0,53.0,-100.00,South,172,0.0,0.0,84,0.00,,,0.00,0.000000,,2013-08-17 02:52:00,
2013-08-16 23:02:00,58.0,53.0,-100.00,South,172,0.0,0.0,84,0.00,,,0.00,0.000000,,2013-08-17 03:02:00,
2013-08-16 23:43:00,55.0,51.0,-100.00,NNE,18,0.0,2.0,87,0.00,,,0.00,0.000000,,2013-08-17 03:43:00,
2013-08-16 23:53:00,55.0,51.0,-100.00,NNE,18,0.0,2.0,87,0.00,,,0.00,0.000000,,2013-08-17 03:53:00,